TIME,DELAY(SENSOR),PRES,OXYGEN,RAWTEMP,T(OPTODE),TCPHASE,FLUOR,BETA(BETA700),BETA(BETA412),BETA(BETA440),CDOM,C(CSC),ED(ED412.40),ED(ED444.00),ED(ED489.70),ED(ED554.30),LU(LU411.80),LU(LU443.40),LU(LU489.60),LU(LU554.10),COMP,TILTX,TILTY,CHECK
1365738628,5807,838.0900268554688000,43.5476608276367200,657.2064819335938000,4.7198958396911620,54.4396781921386700,53,99,87,79,80,14875,2147752886,2147422582,2148009618,2147874971,2147637906,2147060077,2148257636,2147196918,2075,4,14,22446
1365742224,5809,899.7600097656250000,46.3765602111816400,663.6417846679688000,4.5080051422119140,54.1013603210449200,53,100,86,79,80,14875,2147754422,2147425152,2148012589,2147871286,2147637595,2147055579,2148262976,2147191862,1076,4,13,41452
1365745824,5807,911.2299804687500000,46.2262992858886700,663.7871704101562000,4.5032119750976560,54.1207313537597660,52,99,87,77,79,14872,2147752896,2147423506,2148010697,2147873572,2147636114,2147055424,2148260781,2147198235,236,4,13,43158
1365749424,5810,933.8499755859375000,46.0402908325195300,667.0548095703125000,4.3954391479492190,54.1933784484863300,52,98,87,78,80,14874,2147755209,2147426514,2148013129,2147874477,2147638646,2147058642,2148261394,2147194523,3433,4,13,52285
1365753024,5805,937.5900268554688000,46.3861503601074200,668.1199951171875000,4.3602809906005860,54.1543006896972660,53,98,85,78,79,14873,2147753517,2147424054,2148012169,2147873965,2147638390,2147058678,2148262317,2147197750,3586,4,13,3731
1365756624,5808,943.1599731445312000,46.1026306152343750,667.2769165039062000,4.3881111145019530,54.1861686706543000,53,98,87,78,80,14872,2147756260,2147426669,2148010358,2147872164,2147637467,2147061312,2148257682,2147194962,3344,4,13,59589
1365760224,5810,969.0399780273438000,46.7378997802734400,670.0424194335938000,4.2967967987060550,54.1259803771972660,52,98,82,79,81,14872,2147755044,2147422253,2148009252,2147875446,2147639076,2147061421,2148253632,2147191844,41,4,13,33826
1365763824,5809,958.6500244140625000,47.6537590026855500,672.1967163085938000,4.2256069183349610,54.0231704711914060,52,99,88,78,82,14874,2147755986,2147424850,2148007680,2147873051,2147639396,2147055314,2148264960,2147195282,253,4,13,52774
1365767424,5808,970.2000122070312000,47.8002700805664060,672.0833129882812000,4.2293548583984375,54.0032310485839840,52,100,88,78,81,14874,2147758674,2147422208,2148009910,2147872941,2147639259,2147058770,2148264347,2147197010,213,4,13,25152
1365771024,5810,971.2500000000000000,47.7164001464843750,672.4705200195312000,4.2165551185607910,54.0215110778808600,52,97,83,77,81,14867,2147755273,2147423936,2148010157,2147873618,2147638089,2147057837,2148261403,2147199826,393,4,13,46791
1365774624,5807,968.7700195312500000,47.6135406494140600,671.8422241210938000,4.2373261451721190,54.0253601074218750,53,100,85,78,80,14872,2147753773,2147424475,2148013001,2147876352,2147638637,2147058496,2148264795,2147193846,3468,4,13,25218
1365778224,5812,976.3300170898438000,47.7883605957031250,671.8557128906250000,4.2368769645690920,54.0026588439941400,51,98,86,78,81,14870,2147757065,2147422985,2148010614,2147873444,2147640813,2147061065,2148263442,2147193353,840,4,13,55641
1365781824,5808,961.0700073242188000,47.3669509887695300,672.3099975585938000,4.2218589782714840,54.0638198852539060,52,100,87,79,80,14870,2147757092,2147422262,2148008795,2147874459,2147640475,2147061092,2148261933,2147197650,3126,4,13,5944
1365785424,5809,968.2899780273438000,47.7163085937500000,672.5648193359375000,4.2134342193603520,54.0232391357421900,53,101,83,79,80,14866,2147755803,2147422710,2148011840,2147876077,2147641490,2147061037,2148260708,2147197229,3234,4,13,32684
1365789024,5808,979.8800048828125000,47.4891586303710940,671.4639282226562000,4.2498259544372560,54.0357017517089840,53,98,89,80,81,14867,2147756809,2147423323,2148013147,2147873462,2147638107,2147060635,2148262985,2147195620,924,4,13,26177
1365792624,5807,977.1599731445312000,46.9968681335449200,671.4149780273438000,4.2514438629150390,54.1059303283691400,53,100,85,79,81,14869,2147755227,2147425563,2148011629,2147872640,2147641938,2147059538,2148259712,2147194925,3352,4,13,49890
1365796224,5805,977.2899780273438000,47.2032089233398440,671.5189208984375000,4.2480092048645020,54.0831184387207000,53,98,85,79,80,14867,2147753563,2147423890,2148014098,2147871085,2147642724,2147063058,2148261942,2147193956,3490,4,13,1217
1365799824,5807,981.2100219726562000,47.2075614929199200,671.3472290039062000,4.2536830902099610,54.0789794921875000,51,98,86,78,80,14867,2147755638,2147421915,2148009700,2147872694,2147638966,2147059328,2148265472,2147200109,426,4,13,50089
1365803424,5802,980.8900146484375000,46.6916313171386700,671.2421875000000000,4.2571539878845215,54.1463890075683600,52,100,86,79,80,14858,2147754916,2147421897,2148011236,2147873398,2147641225,2147055872,2148257179,2147198646,3383,4,13,4127
1365807024,5807,981.9899902343750000,46.2367401123046900,670.4884033203125000,4.2820630073547360,54.2045402526855500,53,104,87,79,80,14861,2147750473,2147422052,2148012717,2147873152,2147640192,2147063899,2148256548,2147197732,366,4,13,61310
1365810624,5811,982.3800048828125000,46.2879981994628900,671.3355102539062000,4.2540698051452640,54.2098999023437500,53,98,85,79,81,14863,2147753609,2147424832,2148009572,2147871771,2147641033,2147059300,2148260681,2147196745,9,4,13,9920
1365814224,5809,980.8099975585938000,47.3189315795898440,671.4348754882812000,4.2507839202880860,54.0635986328125000,53,98,84,80,82,14857,2147751414,2147422034,2148008850,2147875346,2147640713,2147059035,2148260196,2147200996,83,4,13,40490
1365817824,5810,973.9299926757812000,47.0575904846191400,672.5515136718750000,4.2138772010803220,54.1145095825195300,52,98,82,80,80,14841,2147755913,2147425078,2148010569,2147877056,2147640585,2147059922,2148257746,2147197348,984,4,13,29166
1365821424,5811,974.5399780273438000,47.5103111267089840,673.0607299804688000,4.1970372200012210,54.0584602355957000,53,97,88,79,81,14839,2147755529,2147424886,2148011593,2147874075,2147639442,2147060288,2148261988,2147197092,3438,4,13,33176
1365825024,5809,989.7899780273438000,47.3479690551757800,671.6329956054688000,4.2442378997802730,54.0596809387207000,52,98,88,78,80,14841,2147756397,2147422930,2148007716,2147872996,2147639853,2147058505,2148258386,2147197522,2783,4,13,59942
1365828624,5807,987.7600097656250000,46.5181198120117200,671.1749267578125000,4.2593779563903810,54.1700515747070300,52,98,85,79,80,14837,2147755181,2147423780,2148011730,2147873014,2147640210,2147060288,2148257700,2147193746,431,4,13,52693
1365832224,5805,985.2000122070312000,47.1270484924316400,671.1337280273438000,4.2607398033142090,54.0893592834472660,52,99,83,80,81,14836,2147755748,2147421376,2148010386,2147872813,2147639122,2147060644,2148259666,2147192850,492,4,13,34932
1365835824,5813,979.7199707031250000,46.6647300720214840,671.3358764648438000,4.2540588378906250,54.1526184082031250,52,100,86,79,80,14834,2147754742,2147425033,2148011611,2147873042,2147637549,2147060406,2148255707,2147195373,14,4,13,51010
1365839424,5808,981.2700195312500000,47.0128517150878900,671.8547973632812000,4.2369079589843750,54.1119918823242200,53,99,86,78,81,14833,2147756333,2147425673,2148010870,2147871332,2147641270,2147054180,2148265325,2147197248,3545,4,13,35317
1365843024,5808,990.6300048828125000,47.6652488708496100,671.9583740234375000,4.2334799766540530,54.0202484130859400,52,99,85,78,80,14835,2147755245,2147425389,2148011830,2147875392,2147641252,2147057014,2148259840,2147200768,2667,4,13,51237
1365846624,5809,987.3800048828125000,47.0389595031738300,671.3222045898438000,4.2545089721679690,54.1023292541503900,52,99,91,78,81,14801,2147755108,2147424649,2148011136,2147872137,2147641545,2147062848,2148258203,2147198171,3545,4,13,26143
1365850224,5810,991.5599975585938000,46.9623107910156250,671.0504150390625000,4.2634911537170410,54.1058311462402340,53,99,87,79,80,14803,2147754230,2147425718,2148010651,2147872137,2147639634,2147052845,2148257115,2147198052,2973,4,13,55121
1365853824,5808,983.0399780273438000,46.7271881103515600,671.6185302734375000,4.2447190284729000,54.1509513854980500,53,101,83,78,81,14803,2147753700,2147423113,2148010889,2147874157,2147639442,2147052690,2148262829,2147196105,220,4,13,50129
1365857424,5807,986.0000000000000000,46.8151397705078100,671.3856811523438000,4.2524108886718750,54.1319389343261700,53,98,87,79,80,14797,2147754038,2147424128,2148013458,2147873334,2147639067,2147057508,2148262784,2147198153,66,4,13,32136
1365861024,5808,986.2199707031250000,46.7388496398925800,672.3787841796875000,4.2195839881896970,54.1556396484375000,52,101,84,79,81,14799,2147754678,2147426340,2148012178,2147874889,2147642660,2147055872,2148263140,2147202962,3533,4,13,6422
1365864624,5812,981.6500244140625000,46.8652114868164060,672.5225830078125000,4.2148280143737790,54.1403694152832000,52,97,86,78,81,14802,2147759195,2147426514,2148010861,2147872896,2147642816,2147051958,2148261970,2147195931,483,4,13,6415
1365868224,5806,981.6300048828125000,46.6404418945312500,672.7559204101562000,4.2071170806884770,54.1745910644531250,52,98,86,78,80,14796,2147755300,2147422948,2148010121,2147874166,2147638070,2147059693,2148261458,2147199789,235,4,13,63310
1365871824,5807,981.5599975585938000,47.6726493835449200,672.9738769531250000,4.1999092102050780,54.0328407287597660,52,99,87,78,81,14797,2147754121,2147422290,2148010020,2147872594,2147641691,2147059922,2148265709,2147195840,874,4,13,37197
1365875424,5808,983.0999755859375000,46.9069213867187500,672.2910156250000000,4.2224879264831540,54.1338615417480500,53,100,85,78,82,14796,2147758363,2147423597,2148011712,2147875355,2147641426,2147053741,2148263643,2147197952,3414,4,13,26260
1365879024,5810,981.6300048828125000,47.4222488403320300,673.2133178710938000,4.1919898986816410,54.0680694580078100,52,98,85,80,80,14797,2147755574,2147424914,2148011264,2147874102,2147641673,2147060736,2148262720,2147195510,3503,4,13,29532
1365882624,5811,978.5200195312500000,47.5291290283203100,672.7990112304688000,4.2056899070739750,54.0482215881347660,52,99,85,78,80,14798,2147755090,2147426304,2148009901,2147875995,2147640877,2147059638,2148263149,2147196937,193,4,13,30538
1365883855,5810,978.9199829101562000,47.6930007934570300,673.3978271484375000,4.1858878135681150,54.0305900573730500,52,101,88,79,81,14782,2147756900,2147420845,2148011200,2147873188,2147641590,2147058075,2148260196,2147199040,3481,4,13,18672
